DW6366 Heerjansdam NL current weather conditions

sailwx.info

Wind from 067 at 5 knots gusting 13

Air temperature 5.0° C
Dewpoint 2.0° C

Last reported at 2018-Nov-17 19:02 UTC.
Time now 2018-Nov-17 20:00 UTC

Location: N 51°50' E 004°34'.
View on Google Maps.

See reports from other nearby stations

  
Tides and Currents Weather Stations Pressure Air Temp Water Temp Dewpoint Dewpoint Depression Visibility Wind Speed Wind Dir Waves Ship Positions
date/time (UTC)wind fromknots sea level pressurealtimeterstation pressurevisibilityair tempwater tempwave heightnotes
2018-Nov-17 19:02 067 5 gusting 13 5.0
2018-Nov-17 18:52 354 2 gusting 6 5.0
2018-Nov-17 18:42 077 0 gusting 10 5.0
2018-Nov-17 18:32 093 2 gusting 7 5.6
2018-Nov-17 18:22 102 4 gusting 10 5.6
2018-Nov-17 18:12 015 4 gusting 10 5.6
2018-Nov-17 18:02 086 6 gusting 9 5.6
2018-Nov-17 17:52 322 3 gusting 9 6.1
2018-Nov-17 17:42 078 3 gusting 10 6.1
2018-Nov-17 17:32 103 6 gusting 10 6.1
2018-Nov-17 17:22 082 5 gusting 10 6.1
2018-Nov-17 17:12 082 2 gusting 8 6.1
2018-Nov-17 17:02 038 2 gusting 6 6.1
2018-Nov-17 16:52 028 3 gusting 9 6.1
2018-Nov-17 16:42 086 1 gusting 6 6.1
2018-Nov-17 16:32 086 0 gusting 4 6.1
2018-Nov-17 16:22 042 2 gusting 6 6.1
2018-Nov-17 16:12 088 0 gusting 3 6.7
2018-Nov-17 16:02 131 0 gusting 3 6.7
2018-Nov-17 15:52 059 2 gusting 9 7.2
2018-Nov-17 15:42 089 2 gusting 8 7.2
2018-Nov-17 15:32 058 5 gusting 9 7.2
2018-Nov-17 15:12 051 1 gusting 11 7.8
2018-Nov-17 15:02 119 6 gusting 11 7.8
2018-Nov-17 14:52 051 5 gusting 13 8.3
2018-Nov-17 14:42 079 11 gusting 15 8.3
2018-Nov-17 14:32 092 9 gusting 16 8.3
2018-Nov-17 14:22 077 8 gusting 13 8.3
2018-Nov-17 14:12 075 8 gusting 14 8.9
2018-Nov-17 14:02 089 8 gusting 15 8.9
2018-Nov-17 13:52 100 7 gusting 16 8.9
2018-Nov-17 13:32 046 11 gusting 14 8.3
2018-Nov-17 13:22 080 10 gusting 15 8.3
2018-Nov-17 13:12 093 9 gusting 14 8.3
2018-Nov-17 13:02 090 7 gusting 13 8.9
2018-Nov-17 12:52 090 9 gusting 17 8.9
2018-Nov-17 12:42 082 10 gusting 17 8.9
2018-Nov-17 12:32 106 7 gusting 14 8.9
2018-Nov-17 12:22 090 7 gusting 12 8.9
2018-Nov-17 12:12 085 6 gusting 13 8.9
2018-Nov-17 12:02 073 7 gusting 13 8.3
2018-Nov-17 11:52 020 8 gusting 15 8.3
2018-Nov-17 11:42 115 7 gusting 13 8.3
2018-Nov-17 11:32 080 8 gusting 13 7.8
2018-Nov-17 11:22 088 8 gusting 13 7.8
2018-Nov-17 11:12 081 7 gusting 14 7.2
2018-Nov-17 11:02 050 8 gusting 13 7.2
2018-Nov-17 10:52 055 8 gusting 12 7.2
2018-Nov-17 10:42 053 6 gusting 12 6.7
2018-Nov-17 10:32 046 7 gusting 10 6.7
2018-Nov-17 10:22 071 5 gusting 12 6.1
2018-Nov-17 10:12 084 6 gusting 9 6.1
2018-Nov-17 10:02 018 5 gusting 10 5.6
2018-Nov-17 09:52 091 5 gusting 11 5.6
2018-Nov-17 09:32 084 6 gusting 10 4.4
2018-Nov-17 09:22 071 6 gusting 9 3.9
2018-Nov-17 09:12 054 6 gusting 9 3.9
2018-Nov-17 09:02 058 6 gusting 11 3.3
2018-Nov-17 08:52 036 6 gusting 9 3.3
2018-Nov-17 08:42 088 5 gusting 10 2.8
2018-Nov-17 08:32 085 4 gusting 8 2.8
2018-Nov-17 08:22 076 6 gusting 8 2.2
2018-Nov-17 08:12 100 5 gusting 8 2.2
2018-Nov-17 08:02 082 5 gusting 9 2.2
2018-Nov-17 07:52 090 5 gusting 8 1.7
2018-Nov-17 07:42 088 6 gusting 9 1.7
2018-Nov-17 07:32 076 6 gusting 8 1.7
2018-Nov-17 07:22 050 6 gusting 8 2.2
2018-Nov-17 07:12 084 5 gusting 9 2.2
2018-Nov-17 07:02 089 6 gusting 10 2.2
2018-Nov-17 06:52 080 5 gusting 8 2.2
2018-Nov-17 06:42 073 6 gusting 8 2.2
2018-Nov-17 06:32 120 4 gusting 7 2.2
2018-Nov-17 06:22 054 5 gusting 8 2.2
2018-Nov-17 06:12 079 5 gusting 8 2.8
2018-Nov-17 06:02 071 6 gusting 7 2.8
2018-Nov-17 05:52 041 6 gusting 9 2.8
2018-Nov-17 05:42 106 5 gusting 7 2.8
2018-Nov-17 05:32 102 4 gusting 6 2.8
2018-Nov-17 05:22 092 4 gusting 9 2.8
2018-Nov-17 05:12 080 5 gusting 8 2.8
2018-Nov-17 05:02 084 6 gusting 9 3.3
2018-Nov-17 04:52 091 6 gusting 9 3.3
2018-Nov-17 04:42 088 5 gusting 9 3.3
2018-Nov-17 04:32 078 5 gusting 10 3.3
2018-Nov-17 04:22 032 5 gusting 8 3.3
2018-Nov-17 04:12 055 4 gusting 7 3.3
2018-Nov-17 04:02 096 5 gusting 6 3.3
2018-Nov-17 03:52 100 4 gusting 7 3.9
2018-Nov-17 03:42 058 5 gusting 6 4.4
2018-Nov-17 03:32 072 4 gusting 6 5.0
2018-Nov-17 03:22 094 5 gusting 10 5.0
2018-Nov-17 03:12 075 4 gusting 10 4.4
2018-Nov-17 03:02 080 6 gusting 8 4.4
2018-Nov-17 02:52 094 3 gusting 6 4.4
2018-Nov-17 02:42 114 4 gusting 6 4.4
2018-Nov-17 02:32 100 2 gusting 6 3.9
2018-Nov-17 02:22 103 2 gusting 6 3.9
2018-Nov-17 02:12 129 2 gusting 6 3.9
2018-Nov-17 02:02 105 2 gusting 6 3.9
2018-Nov-17 01:52 096 2 gusting 6 3.9
2018-Nov-17 01:42 087 3 gusting 8 3.9
2018-Nov-17 01:32 097 3 gusting 6 3.9
2018-Nov-17 01:22 099 1 gusting 3 3.3
2018-Nov-17 01:12 088 2 gusting 4 3.9
2018-Nov-17 01:02 084 1 gusting 4 3.9
2018-Nov-17 00:52 075 1 gusting 6 3.9
2018-Nov-17 00:42 127 2 gusting 6 4.4
2018-Nov-17 00:32 082 2 gusting 6 4.4
2018-Nov-17 00:22 132 3 gusting 7 4.4
2018-Nov-17 00:12 135 3 gusting 6 4.4
2018-Nov-17 00:02 091 3 gusting 6 4.4
2018-Nov-16 23:52 132 2 gusting 6 4.4
2018-Nov-16 23:42 093 3 gusting 6 4.4
2018-Nov-16 23:32 096 3 gusting 8 4.4
2018-Nov-16 23:22 092 3 gusting 7 4.4
2018-Nov-16 23:12 096 3 gusting 8 4.4
2018-Nov-16 22:52 097 3 gusting 7 3.9
2018-Nov-16 22:42 107 2 gusting 6 3.9
2018-Nov-16 22:32 079 4 gusting 6 3.9
2018-Nov-16 22:22 092 3 gusting 6 3.3
2018-Nov-16 22:12 061 2 gusting 4 3.3
2018-Nov-16 22:02 077 0 gusting 2 3.3
2018-Nov-16 21:52 073 0 gusting 3 3.3
2018-Nov-16 21:42 093 1 gusting 3 3.3
2018-Nov-16 21:32 075 3.3
2018-Nov-16 21:22 042 3.3
2018-Nov-16 21:12 026 3.9
2018-Nov-16 21:02 017 3.9
2018-Nov-16 20:52 017 3.9
2018-Nov-16 20:42 009 3.9
2018-Nov-16 20:32 009 3.9
2018-Nov-16 20:22 009 3.9
2018-Nov-16 20:12 019 3.9
2018-Nov-16 20:02 019 3.9
2018-Nov-16 19:52 013 3.9
2018-Nov-16 19:42 004 3.9
2018-Nov-16 19:32 024 3.9
2018-Nov-16 19:22 040 3.9
2018-Nov-16 19:12 065 3.9
2018-Nov-16 19:02 075 0 gusting 2 3.9
2018-Nov-16 18:52 067 0 gusting 1 4.4
2018-Nov-16 18:42 111 1 gusting 6 4.4
2018-Nov-16 18:32 119 1 gusting 5 4.4
2018-Nov-16 18:22 014 3.9
2018-Nov-16 18:12 015 3.9
2018-Nov-16 18:02 007 4.4
2018-Nov-16 17:52 010 4.4
2018-Nov-16 17:42 009 4.4
2018-Nov-16 17:32 012 4.4
2018-Nov-16 17:22 032 0 gusting 1 4.4
2018-Nov-16 17:12 055 4.4
2018-Nov-16 17:02 008 0 gusting 0 4.4
2018-Nov-16 16:52 355 5.0
2018-Nov-16 16:42 004 5.0
2018-Nov-16 16:32 026 5.0
2018-Nov-16 16:22 015 5.0
2018-Nov-16 16:12 041 5.6
2018-Nov-16 16:02 068 5.6
2018-Nov-16 15:52 088 2 gusting 4 5.6
2018-Nov-16 15:42 048 1 gusting 4 6.1
2018-Nov-16 15:32 059 0 gusting 4 6.1
2018-Nov-16 15:22 083 4 gusting 6 6.1
2018-Nov-16 15:12 067 3 gusting 6 6.1
2018-Nov-16 15:02 086 3 gusting 10 6.1
2018-Nov-16 14:52 073 5 gusting 9 6.1
2018-Nov-16 14:42 090 3 gusting 7 6.1
2018-Nov-16 14:32 096 5 gusting 7 6.7
2018-Nov-16 14:22 090 2 gusting 7 6.7
2018-Nov-16 14:12 090 4 gusting 6 6.7
2018-Nov-16 14:02 099 1 gusting 4 6.7
2018-Nov-16 13:52 115 1 gusting 4 6.1
2018-Nov-16 13:42 088 3 gusting 6 6.1
2018-Nov-16 13:32 082 4 gusting 6 6.1
2018-Nov-16 13:22 112 3 gusting 8 6.1
2018-Nov-16 13:12 127 5 gusting 9 6.1
2018-Nov-16 13:02 098 4 gusting 6 6.1
2018-Nov-16 12:42 131 3 gusting 6 6.1
2018-Nov-16 12:32 086 2 gusting 6 5.0
2018-Nov-16 12:22 115 2 gusting 6 5.0
2018-Nov-16 12:12 089 0 gusting 6 4.4
2018-Nov-16 12:02 074 3 gusting 6 4.4
2018-Nov-16 11:52 074 1 gusting 5 4.4
2018-Nov-16 11:42 093 1 gusting 4 3.9
2018-Nov-16 11:32 075 2 gusting 4 3.9
2018-Nov-16 11:22 096 1 gusting 4 3.3
2018-Nov-16 11:12 090 2 gusting 6 3.3
2018-Nov-16 11:02 071 1 gusting 6 3.3
2018-Nov-16 10:52 140 1 gusting 8 3.3
2018-Nov-16 10:42 084 4 gusting 7 2.8
2018-Nov-16 10:32 104 3 gusting 6 2.8
2018-Nov-16 10:22 084 2 gusting 6 2.8
2018-Nov-16 10:12 132 5 gusting 8 2.8
2018-Nov-16 10:02 105 4 gusting 7 2.8
2018-Nov-16 09:52 145 5 gusting 8 2.8
2018-Nov-16 09:42 116 1 gusting 3 2.8
2018-Nov-16 09:32 139 3 gusting 6 2.8
2018-Nov-16 09:22 148 3 gusting 6 2.8
2018-Nov-16 09:12 108 1 gusting 6 2.8
2018-Nov-16 09:02 096 1 gusting 6 2.8
2018-Nov-16 08:52 103 3 gusting 6 2.8
2018-Nov-16 08:42 112 2 gusting 4 2.8
2018-Nov-16 08:32 094 2 gusting 4 2.8
2018-Nov-16 08:22 094 2 gusting 6 2.8
2018-Nov-16 08:12 110 1 gusting 6 2.8
2018-Nov-16 08:02 102 2 gusting 6 2.8
2018-Nov-16 07:52 121 2 gusting 6 2.2
2018-Nov-16 07:42 105 2 gusting 6 2.2
2018-Nov-16 07:32 094 3 gusting 7 2.2
2018-Nov-16 07:22 102 2 gusting 5 2.2
2018-Nov-16 07:12 096 2 gusting 4 2.2
2018-Nov-16 07:02 109 0 gusting 2 2.2
2018-Nov-16 06:52 156 0 gusting 3 2.2
2018-Nov-16 06:42 132 1 gusting 2 1.7
2018-Nov-16 06:32 174 0 gusting 3 1.7
2018-Nov-16 06:22 171 2 gusting 4 1.7
2018-Nov-16 06:12 109 0 gusting 4 1.7
2018-Nov-16 06:02 145 1 gusting 4 1.7
2018-Nov-16 05:52 170 1 gusting 2 1.7
2018-Nov-16 05:42 117 1 gusting 4 1.7
2018-Nov-16 05:32 150 2 gusting 6 1.7
2018-Nov-16 05:22 162 1 gusting 4 1.7
2018-Nov-16 05:12 190 1 gusting 3 1.7
2018-Nov-16 05:02 158 1 gusting 4 1.1
2018-Nov-16 04:52 134 1 gusting 3 0.6
2018-Nov-16 04:42 096 0.6
2018-Nov-16 04:32 096 0.6
2018-Nov-16 04:22 096 0 gusting 0 0.6
2018-Nov-16 04:12 096 1.1
2018-Nov-16 04:02 096 1.1
2018-Nov-16 03:52 096 1.1
2018-Nov-16 03:42 096 1.1
2018-Nov-16 03:32 096 1.7
2018-Nov-16 03:22 096 1.7
2018-Nov-16 03:12 096 1.7
2018-Nov-16 03:02 096 1.7
2018-Nov-16 02:52 096 1.7
2018-Nov-16 02:42 096 2.2
2018-Nov-16 02:32 096 1 gusting 2 2.2
2018-Nov-16 02:22 102 1 gusting 2 2.2
2018-Nov-16 02:12 098 0 gusting 1 2.2
2018-Nov-16 02:02 096 0 gusting 2 2.2
2018-Nov-16 01:52 109 0 gusting 3 2.2
2018-Nov-16 01:42 088 0 gusting 2 2.2
2018-Nov-16 01:32 099 1 gusting 3 2.8
2018-Nov-16 01:22 089 1 gusting 3 2.8
2018-Nov-16 01:12 067 0 gusting 2 2.8
2018-Nov-16 01:02 090 2.8
2018-Nov-16 00:52 089 2 gusting 3 2.8
2018-Nov-16 00:42 102 0 gusting 2 3.3
2018-Nov-16 00:32 102 1 gusting 3 3.3
2018-Nov-16 00:22 090 1 gusting 3 3.3
2018-Nov-16 00:12 082 2 gusting 3 3.3
2018-Nov-16 00:02 072 3.9
2018-Nov-15 23:52 077 3.9
2018-Nov-15 23:42 077 0 gusting 1 3.9
2018-Nov-15 23:32 077 0 gusting 2 3.9
2018-Nov-15 23:22 082 0 gusting 2 4.4
2018-Nov-15 23:12 082 2 gusting 3 4.4
2018-Nov-15 22:52 095 1 gusting 3 5.0
2018-Nov-15 22:42 082 1 gusting 2 5.0
2018-Nov-15 22:32 083 5.0
2018-Nov-15 22:22 083 0 gusting 3 5.6
2018-Nov-15 22:12 078 1 gusting 4 5.6
2018-Nov-15 22:02 087 3 gusting 6 5.6
2018-Nov-15 21:52 083 1 gusting 3 5.6
2018-Nov-15 21:42 095 0 gusting 3 5.6
2018-Nov-15 21:32 098 1 gusting 3 6.1
2018-Nov-15 21:22 094 0 gusting 2 6.1
2018-Nov-15 21:12 105 0 gusting 3 6.1
2018-Nov-15 21:02 102 0 gusting 2 6.1
2018-Nov-15 20:52 103 0 gusting 3 6.1
2018-Nov-15 20:42 112 1 gusting 2 6.7
2018-Nov-15 20:32 112 6.7
2018-Nov-15 20:22 112 0 gusting 2 6.7
2018-Nov-15 20:12 116 1 gusting 3 7.2
2018-Nov-15 20:02 129 0 gusting 3 7.2